[Date Prev][Date Next][Thread Prev][Thread Next] - [Date Index][Thread Index][Author Index]
2 Line ISS Keps 5-14
- Subject: [sarex] 2 Line ISS Keps 5-14
- From: "Dave Larsen PhD" <doc@xxxxxxxxxxx>
- Date: Sat, 13 May 2006 21:55:52 -0700
ISS
1 25544U 98067A 06133.99458131 .00018604 00000-0 12453-3 0 9293
2 25544 051.6364 003.5106 0009638 195.7393 245.3594 15.75290053427771
----
Via the sarex mailing list at AMSAT.ORG courtesy of AMSAT-NA.
To unsubscribe, send "unsubscribe sarex" to Majordomo@amsat.org
AMSAT Home